This is the latest recevied weather packets stored in our database for station/object DL3NDS-WX. If no packets are shown the sender has not sent any weather packets the latest 10 day(s).
| Time | Temp. | Humidity | Pressure | Rain* | Wind** | Luminosity | Snow |
|---|---|---|---|---|---|---|---|
| 1778316768 | 13.89° C | 78% | 1020.2 hPa | 0 mm | - | 731 W/m² | - |
| 1778316703 | 13.33° C | 78% | 1020.1 hPa | 0 mm | - | 731 W/m² | - |
| 1778316644 | 13.33° C | 78% | 1020.1 hPa | 0 mm | - | 761 W/m² | - |
| 1778316582 | 13.33° C | 77% | 1020.1 hPa | 0 mm | - | 768 W/m² | - |
| 1778316521 | 13.33° C | 78% | 1020.1 hPa | 0 mm | - | 724 W/m² | - |
| 1778316465 | 13.33° C | 78% | 1020.1 hPa | 0 mm | - | 645 W/m² | - |
| 1778316399 | 13.33° C | 78% | 1020.1 hPa | 0 mm | - | 698 W/m² | - |
| 1778316338 | 13.33° C | 77% | 1020 hPa | 0 mm | - | 758 W/m² | - |
| 1778316276 | 13.33° C | 78% | 1020.2 hPa | 0 mm | - | 765 W/m² | - |
| 1778316214 | 13.33° C | 78% | 1020.1 hPa | 0 mm | - | 763 W/m² | - |
| 1778316154 | 13.33° C | 79% | 1020.1 hPa | 0 mm | - | 759 W/m² | - |
| 1778316092 | 13.33° C | 79% | 1020.1 hPa | 0 mm | - | 759 W/m² | - |
| 1778316033 | 13.33° C | 79% | 1020.2 hPa | 0 mm | - | 744 W/m² | - |
| 1778315970 | 13.33° C | 79% | 1020.2 hPa | 0 mm | - | 742 W/m² | - |
| 1778315910 | 13.33° C | 78% | 1020.3 hPa | 0 mm | - | 752 W/m² | - |
| 1778315842 | 13.33° C | 78% | 1020.2 hPa | 0 mm | - | 780 W/m² | - |
| 1778315771 | 13.33° C | 78% | 1020.2 hPa | 0 mm | - | 780 W/m² | - |
| 1778315709 | 13.33° C | 78% | 1020.2 hPa | 0 mm | - | 780 W/m² | - |
| 1778315648 | 13.89° C | 78% | 1020.2 hPa | 0 mm | - | 770 W/m² | - |
| 1778315587 | 13.33° C | 78% | 1020.2 hPa | 0 mm | - | 770 W/m² | - |
| 1778315525 | 13.33° C | 78% | 1020.2 hPa | 0 mm | - | 770 W/m² | - |
| 1778315464 | 13.33° C | 78% | 1020.2 hPa | 0 mm | - | 744 W/m² | - |
| 1778315402 | 13.33° C | 78% | 1020.1 hPa | 0 mm | - | 731 W/m² | - |
| 1778315341 | 13.89° C | 78% | 1020.2 hPa | 0 mm | - | 724 W/m² | - |
| 1778315280 | 13.89° C | 78% | 1020.1 hPa | 0 mm | - | 728 W/m² | - |
* Rain latest hour (hover to see other rain measurements)
** Current wind speed in m/s (hover to see current wind gust speed)